Погода в Кузьмовке

Погода в Кузьмовке : погода сейчас, прогноз погоды и архив. Всё, что Вы хотите узнать о погоде в Кузьмовке!

Поиск расширенной информации на нашем сайте:

Другие новости

Новости СМИ2

Главная страница сайта

Новости сайта

03.07.2017

Напоминаем, что на нашем специализированном сайте Метеоцентр.Азия вы можете получить высокодетализированные автоматические прогнозы погоды по пунктам России, СНГ и мира в авиационном формате (включающие направление и скорость ветра, видимость, явления погоды, количество и форму облачности, нижнюю и верхнюю границу облачности).

Рекомендуем: Комплексные системы безопасности и слаботочные сети читать дальше.

Погода в Кузьмовке - сегодня

Время (UTC), дата Ветер
(°,м/с) 
Видим.   Явления Облачность Т
(°С)
Тd
(°С)
f(%) Тe
(°С)
Pmin
(гПа)
dP
(гПа)
Po
(мм)
O2
(г/м3)
Тmin Tmax R s Состояние
почвы
09 17.07.17 050 (СВ) 20000 м    9/9 600 м 
[Sc]
+19.8 +11.5 59 +24  1014  -0.7  755  282           
12 17.07.17 тихо ()   20000 м    9/6 600 м верхняя 
[Cu Sc|Ci sp]
+19.6 +15.4 77 +29  1013.7  -0.3  755  281    +20.1       
15 17.07.17 тихо ()   20000 м    8/8 600 м 
[Sc]
+15 +13.6 91 +21  1013.9  0.1  755  286           
18 17.07.17 тихо ()   20000 м    4/4 1000 м 
[Sc]
+10.4 +9.8 96 +11  1014.2  0.1  755  291           
03 18.07.17 270 (З) 20000 м    3/3 2000 м средняя 
[Ac trans]
+19.4 +11.4 60 +23  1014.1  -0.6  755  282           
12 18.07.17 090 (В) 20000 м    6/4 600 м верхняя 
[Cu med, cong|Ci fib]
+24.1 +12 47 +28  1011.8  754  277    +25       
15 18.07.17 180 (Ю) 20000 м    6/3 2000 м средняя, верхняя 
[Ac trans|Ci sp]
+17.4 +13.5 78 +25  1012.5  0.5  754  283           
18 18.07.17 090 (В) 20000 м    9/9 2000 м средняя 
[Ac und]
+12.2 +11.1 93 +16  1013.4  0.5  754  289           
00 19.07.17 тихо ()   20000 м    9/9 1000 м 
[Sc]
+13.6 +12.5 93 +18  1013.2  -0.2  754  287  +11.2         
03 19.07.17 180 (Ю) 20000 м    1/1 600 м 
[Cu hum]
+21 +15.7 72 +31  1012.2  -0.7  754  279           
06 19.07.17 180 (Ю) 20000 м    5/5 600 м 
[Cu hum]
+26.6 +10.4 36 +28  1010.7  -1.4  753  275           
09 19.07.17 040 (СВ) 20000 м    4/4 600 м 
[Cu hum]
+26.6 +5.5 26 +27  1009.4  -1.2  752  275           
12 19.07.17 090 (В) 20000 м    4/4 600 м 
[Cu hum]
+26.5 +7.7 30 +27  1008.5  -0.9  751  275    +27.1       
15 19.07.17 090 (В) 20000 м    6/3 600 м верхняя 
[Sc|Ci fib]
+18 +13.6 75 +25  1009.6  0.8  752  281           
18 19.07.17 090 (В) 20000 м    4/3 600 м верхняя 
[Sc|Ci fib]
+11.3 +10.3 94 +14  1010.3  0.6  752  289           
21 19.07.17 090 (В) 20000 м    1/0 верхняя 
[Ci fib]
+8 +7.6 97 +9  1011  0.6  753  293           
00 20.07.17 090 (В) 20000 м    ясно 
+12.5 +10.4 87 +16  1011.3  0.4  753  288  +7.5         
03 20.07.17 270 (З) 20000 м    1/0 верхняя 
[Ci fib]
+19.2 +12 63 +25  1011  -0.2  753  281           
06 20.07.17 270 (З) 20000 м    4/4 600 м 
[Cu hum]
+28 +11.3 35 +31  1009.6  -1.1  752  273           
09 20.07.17 180 (Ю) 20000 м    4/4 600 м 
[Cu med, cong]
+27.6 +11.2 36 +30  1008.8  -0.8  751  273           
12 20.07.17 050 (СВ) 20000 м    10/8 600 м кучево-дожд., верхняя 
[Cb cap|Ci fib]
+24.5 +12.6 47 +29  1009.8  0.9  752  276    +28.5       
15 20.07.17 090 (В) 20000 м    5/3 600 м верхняя 
[Sc|Ci fib]
+18 +15.6 86 +29  1011.9  1.9  753  281           
18 20.07.17 090 (В) 20000 м    3/3 600 м 
[Sc]
+13.1 +12.5 96 +19  1012.3  0.9  754  287           
00 21.07.17 050 (СВ) 20000 м    1/1 2000 м средняя 
[Ac und]
+15.2 +13.6 90 +23  1014  0.7  755  285    +10.6       
03 21.07.17 320 (СЗ) 20000 м    1/1 2000 м средняя 
[Ac trans]
+22.9 +8.4 39 +23  1014.3  0.7  755  279           
Время (UTC), дата Ветер
(°,м/с) 
Видим.   Явления Облачность Т
(°С)
Тd
(°С)
f(%) Тe
(°С)
Pmin
(гПа)
dP
(гПа)
Po
(мм)
O2
(г/м3)
Тmin Tmax R s Состояние
почвы

Для получения пояснительной информации подведите курсор к названию столбца.

ПОГОДА в Кузьмовке - архив

Всё, что Вы хотите узнать о погоде в Кузьмовке - удобно и подробно!

Выберите нужную дату (начиная с 1 января 2015* года) и нажмите кнопку "Найти".
Будут отображены архивные сводки погоды по пункту Кузьмовка, начиная с указанной даты.


Отображать данные в формате CSV (для использования в таблицах Excel)


Внимание! Наш архив погоды предназначен исключительно для личного некоммерческого использования в познавательных целях. Если Вам необходимы официальные справки о состоянии погоды (для производственных, юридических, коммерческих и т.п. целей), обращайтесь в органы Росгидромета.

*Примечание: данная дата относится к архиву по метеостанциям СССР (Россия, СНГ, Балтия).
Архив по метеостанциям Зарубежной Европы и Азии (кроме Китая) хранится 10 дней, по другим регионам земного шара (Китай, Африка, Америка, Австралия, Океания) - 1 день.

Кузьмовка - район местоположения метеостанции


Название, широта, долгота, высота метеостанции:
Кузьмовка 62.3°ш. 92.1°д. 60 м над ур. моря [Российская Федерация]

Дополнительная информация

В oтличие oт бoльшинства пoгoдных сайтoв мы публикуем пoдрoбную метеoинфoрмацию в детальнoм прoфессиoнальнoм фoрмате.

Характеристики температуры и влажнoсти вoздуха измеряются на высoте 2 м в тени вдали oт зданий и деревьев.
Скoрoсть ветра измеряется на высoте 10 м (на урoвне рoста челoвека скoрoсть ветра ниже в 1.5-2 раза). Если метеoстанция нахoдится в гoрoде или в лесу, тo скoрoсть ветра занижена на 2-4 м/с пo сравнению с oткрытым местoм. Скoрoсть ветра над акватoриями крупных рек и oзёр, а также на вершинах хoлмoв на 2-5 м/с выше, чем в oбычных услoвиях.
Атмoсфернoе давление в разных тoчках местнoсти мoжет значительнo oтличаться oт давления на метеoстанции, в зависимoсти oт услoвий рельефа (при пoдъёме на 10 м давление пoнижается примернo на 1 мм рт.ст.).